Regional Weather Roundup
Issued by NWS

Home | Current Version | Previous Version | Text Only | Print | Product List | Glossary Off
Versions: 1 2 3 4 5 6 7 8 9 10 11 12 13 14 15 16 17 18 19 20 21 22 23 24 25 26 27 28 29 30 31 32 33 34 35 36 37 38 39 40 41 42 43 44 45 46 47 48 49 50

000
ASUS43 KFSD 301702
RWRSD

WEATHER ROUNDUP FOR SOUTH DAKOTA
NATIONAL WEATHER SERVICE SIOUX FALLS SD
1200 PM CDT WED JUL 30 2014

NOTE: "FAIR" INDICATES FEW OR NO CLOUDS BELOW 12,000 FEET WITH NO
SIGNIFICANT WEATHER AND/OR OBSTRUCTIONS TO VISIBILITY.


SDZ001>005-009-010-012>017-301800-
NORTHWEST AND NORTH CENTRAL SOUTH DAKOTA

CITY           SKY/WX    TMP DP  RH WIND       PRES   REMARKS
BUFFALO          N/A     77  51  40 NW12      30.15R
FAITH            N/A     76  56  49 N8        30.16S
MOBRIDGE       MOSUNNY   79  58  48 S8        30.13S
$$

SDZ012>016-024>037-041>051-057-063-072>074-301800-
SOUTHWEST AND SOUTH CENTRAL SOUTH DAKOTA

CITY           SKY/WX    TMP DP  RH WIND       PRES   REMARKS
RAPID CTY ARPT SUNNY     79  56  45 NE8       30.20F
PIERRE         CLOUDY    79  55  43 E6        30.14S
CUSTER         MOSUNNY   71  43  36 W3        30.32F
ELLSWORTH AFB  SUNNY     78  55  44 VRB7      30.20F
PHILIP         SUNNY     82  51  34 MISG      30.15F
PINE RIDGE     MOSUNNY   74  56  53 W8        30.23F
WINNER         FAIR      82  51  34 VRB6      30.17F
$$

SDZ004>011-016>023-039-040-301800-
NORTHEAST SOUTH DAKOTA

CITY           SKY/WX    TMP DP  RH WIND       PRES   REMARKS
ABERDEEN       SUNNY     76  54  46 VRB5      30.15F
WATERTOWN      SUNNY     73  54  51 NW7       30.16F
SISSETON         N/A     76  53  44 VRB5      30.13F
$$

SDZ017-020-022-023-036>040-048>070-301800-
SOUTHEAST SOUTH DAKOTA

CITY           SKY/WX    TMP DP  RH WIND       PRES   REMARKS
SIOUX FALLS    MOSUNNY   76  54  46 VRB3      30.16F
HURON          SUNNY     76  52  43 VRB5      30.15F
CHAMBERLAIN    SUNNY     78  55  45 CALM      30.16F
MITCHELL       SUNNY     77  53  43 CALM      30.17S
YANKTON          N/A    N/A N/A N/A MISG        N/A
$$

ABBREVIATIONS USED IN REMARKS
   TC - TEMPERATURE IN CELSIUS
  WCI - WIND CHILL INDEX
   HX - HEAT INDEX
  VSB - VISIBILITY



USA.gov is the U.S. government's official web portal to all federal, state and local government web resources and services.